Back to catalog

STARLINK-11119

AliveCommunicationsVLEO
NORAD 60121·PAYLOAD·🇺🇸 United States

Launched Jun 24, 2024 from Vandenberg Space Force Base

Loading…

Next Passes (next 24 hours)

TLE

FreshSource: CelesTrak SupGP

Epoch: Sep 14, 2026, 15:06 UTC

1 60121C 24118J   26257.62965278 -.00004837  00000+0 -39858-4 0  2570
2 60121  53.1573   9.6029 0001100  91.4120 206.8687 15.69702453    11

Track STARLINK-11119 in real time with AllMySat

Download on the App Store